owner,sensor,date,latitude,longitude,vertical_datum,direction_of_sea_water_velocity,sea_water_speed,upward_sea_water_velocity,qcFlag 
TABS,ioos:station:wmo:42043:1,2004-05-01T00:00:00Z,28.9818,-94.9186,2.0,313.523105,14.81173859,-99999.0,'11111222,11111222,99999999' 
TABS,ioos:station:wmo:42043:1,2004-05-01T00:30:00Z,28.9818,-94.9186,2.0,304.487515,20.7339263,-99999.0,'11111222,11111222,99999999' 
TABS,ioos:station:wmo:42043:1,2004-05-01T01:00:00Z,28.9818,-94.9186,2.0,308.2844723,23.58118318,-99999.0,'11111222,11111222,99999999' 
TABS,ioos:station:wmo:42043:1,2004-05-01T01:30:00Z,28.9818,-94.9186,2.0,306.5150469,22.90644014,-99999.0,'11111222,11111222,99999999' 
TABS,ioos:station:wmo:42043:1,2004-05-01T02:00:00Z,28.9818,-94.9186,2.0,297.8875163,29.46133059,-99999.0,'11111222,11111222,99999999' 
TABS,ioos:station:wmo:42043:1,2004-05-01T02:30:00Z,28.9818,-94.9186,2.0,289.4151365,25.15010934,-99999.0,'11111222,11111222,99999999' 
TABS,ioos:station:wmo:42043:1,2004-05-01T03:00:00Z,28.9818,-94.9186,2.0,284.0998078,26.39516812,-99999.0,'11111222,11111222,99999999' 
TABS,ioos:station:wmo:42043:1,2004-05-01T03:30:00Z,28.9818,-94.9186,2.0,284.7091626,29.34155586,-99999.0,'11111222,11111222,99999999' 
TABS,ioos:station:wmo:42043:1,2004-05-01T04:00:00Z,28.9818,-94.9186,2.0,275.0949053,33.22123718,-99999.0,'11111222,11111222,99999999' 
TABS,ioos:station:wmo:42043:1,2004-05-01T04:30:00Z,28.9818,-94.9186,2.0,259.2882431,34.54185866,-99999.0,'11111222,11111222,99999999' 
TABS,ioos:station:wmo:42043:1,2004-05-01T05:00:00Z,28.9818,-94.9186,2.0,252.4993781,39.73930674,-99999.0,'11111222,11111222,99999999' 
TABS,ioos:station:wmo:42043:1,2004-05-01T05:30:00Z,28.9818,-94.9186,2.0,246.5889091,46.81369031,-99999.0,'11111222,11111222,99999999' 
TABS,ioos:station:wmo:42043:1,2004-05-01T06:00:00Z,28.9818,-94.9186,2.0,248.3538209,49.23172961,-99999.0,'11111222,11111222,99999999' 
TABS,ioos:station:wmo:42043:1,2004-05-01T06:30:00Z,28.9818,-94.9186,2.0,243.9136139,50.28198186,-99999.0,'11111222,11111222,99999999' 
TABS,ioos:station:wmo:42043:1,2004-05-01T07:00:00Z,28.9818,-94.9186,2.0,246.6092737,55.31577081,-99999.0,'11111222,11111222,99999999' 
TABS,ioos:station:wmo:42043:1,2004-05-01T07:30:00Z,28.9818,-94.9186,2.0,248.6132684,53.06383514,-99999.0,'11111222,11111222,99999999' 
TABS,ioos:station:wmo:42043:1,2004-05-01T08:00:00Z,28.9818,-94.9186,2.0,248.669249,55.34093783,-99999.0,'11111222,11111222,99999999' 
TABS,ioos:station:wmo:42043:1,2004-05-01T08:30:00Z,28.9818,-94.9186,2.0,240.2017694,59.00086779,-99999.0,'11111222,11111222,99999999' 
TABS,ioos:station:wmo:42043:1,2004-05-01T09:00:00Z,28.9818,-94.9186,2.0,242.5820662,56.50722078,-99999.0,'11111222,11111222,99999999' 
TABS,ioos:station:wmo:42043:1,2004-05-01T09:30:00Z,28.9818,-94.9186,2.0,241.8867913,58.44530862,-99999.0,'11111222,11111222,99999999' 
TABS,ioos:station:wmo:42043:1,2004-05-01T10:00:00Z,28.9818,-94.9186,2.0,236.8657431,62.86158764,-99999.0,'11111222,11111222,99999999' 
TABS,ioos:station:wmo:42043:1,2004-05-01T10:30:00Z,28.9818,-94.9186,2.0,237.6243163,61.89032638,-99999.0,'11111222,11111222,99999999' 
TABS,ioos:station:wmo:42043:1,2004-05-01T11:00:00Z,28.9818,-94.9186,2.0,239.1461848,60.58370243,-99999.0,'11111222,11111222,99999999' 
TABS,ioos:station:wmo:42043:1,2004-05-01T11:30:00Z,28.9818,-94.9186,2.0,238.4212513,56.75386242,-99999.0,'11111222,11111222,99999999' 
TABS,ioos:station:wmo:42043:1,2004-05-01T12:00:00Z,28.9818,-94.9186,2.0,239.6627214,55.33733008,-99999.0,'11111222,11111222,99999999' 
TABS,ioos:station:wmo:42043:1,2004-05-01T12:30:00Z,28.9818,-94.9186,2.0,238.649168,49.80089357,-99999.0,'11111222,11111222,99999999' 
TABS,ioos:station:wmo:42043:1,2004-05-01T13:00:00Z,28.9818,-94.9186,2.0,242.0458194,54.24952811,-99999.0,'11111222,11111222,99999999' 
TABS,ioos:station:wmo:42043:1,2004-05-01T13:30:00Z,28.9818,-94.9186,2.0,240.2050316,48.58194315,-99999.0,'11111222,11111222,99999999' 
TABS,ioos:station:wmo:42043:1,2004-05-01T14:00:00Z,28.9818,-94.9186,2.0,251.4442156,55.65304754,-99999.0,'11111222,11111222,99999999' 
TABS,ioos:station:wmo:42043:1,2004-05-01T14:30:00Z,28.9818,-94.9186,2.0,251.0224595,55.13677992,-99999.0,'11111222,11111222,99999999' 
TABS,ioos:station:wmo:42043:1,2004-05-01T15:00:00Z,28.9818,-94.9186,2.0,259.2638064,56.36660714,-99999.0,'11111222,11111222,99999999' 
TABS,ioos:station:wmo:42043:1,2004-05-01T15:30:00Z,28.9818,-94.9186,2.0,265.8572387,58.28225287,-99999.0,'11111222,11111222,99999999' 
TABS,ioos:station:wmo:42043:1,2004-05-01T16:00:00Z,28.9818,-94.9186,2.0,259.482877,49.58291036,-99999.0,'11111222,11111222,99999999' 
TABS,ioos:station:wmo:42043:1,2004-05-01T16:30:00Z,28.9818,-94.9186,2.0,261.2431776,46.70436489,-99999.0,'11111222,11111222,99999999' 
TABS,ioos:station:wmo:42043:1,2004-05-01T17:00:00Z,28.9818,-94.9186,2.0,262.3392733,43.81098036,-99999.0,'11111222,11111222,99999999' 
TABS,ioos:station:wmo:42043:1,2004-05-01T17:30:00Z,28.9818,-94.9186,2.0,226.0001718,34.01702221,-99999.0,'11111222,11111222,99999999' 
TABS,ioos:station:wmo:42043:1,2004-05-01T18:00:00Z,28.9818,-94.9186,2.0,223.0737766,46.70957504,-99999.0,'11111222,11111222,99999999' 
TABS,ioos:station:wmo:42043:1,2004-05-01T18:30:00Z,28.9818,-94.9186,2.0,225.5633223,57.50470589,-99999.0,'11111222,11111222,99999999' 
TABS,ioos:station:wmo:42043:1,2004-05-01T19:00:00Z,28.9818,-94.9186,2.0,228.6751175,62.98426867,-99999.0,'11111222,11111222,99999999' 
TABS,ioos:station:wmo:42043:1,2004-05-01T19:30:00Z,28.9818,-94.9186,2.0,225.8805651,71.75153378,-99999.0,'11111222,11111222,99999999' 
TABS,ioos:station:wmo:42043:1,2004-05-01T20:00:00Z,28.9818,-94.9186,2.0,231.6293796,66.75888855,-99999.0,'11111222,11111222,99999999' 
TABS,ioos:station:wmo:42043:1,2004-05-01T20:30:00Z,28.9818,-94.9186,2.0,234.0902253,56.07787888,-99999.0,'11111222,11111222,99999999' 
TABS,ioos:station:wmo:42043:1,2004-05-01T21:00:00Z,28.9818,-94.9186,2.0,235.9338866,54.98583909,-99999.0,'11111222,11111222,99999999' 
TABS,ioos:station:wmo:42043:1,2004-05-01T21:30:00Z,28.9818,-94.9186,2.0,241.5473141,55.81122647,-99999.0,'11111222,11111222,99999999' 
TABS,ioos:station:wmo:42043:1,2004-05-01T22:00:00Z,28.9818,-94.9186,2.0,242.3570844,56.60041696,-99999.0,'11111222,11111222,99999999' 
TABS,ioos:station:wmo:42043:1,2004-05-01T22:30:00Z,28.9818,-94.9186,2.0,240.898821,54.17931432,-99999.0,'11111222,11111222,99999999' 
TABS,ioos:station:wmo:42043:1,2004-05-01T23:00:00Z,28.9818,-94.9186,2.0,236.2709184,49.31008518,-99999.0,'11111222,11111222,99999999' 
TABS,ioos:station:wmo:42043:1,2004-05-01T23:30:00Z,28.9818,-94.9186,2.0,238.1927414,57.22326887,-99999.0,'11111222,11111222,99999999' 
TABS,ioos:station:wmo:42043:1,2004-05-02T00:00:00Z,28.9818,-94.9186,2.0,240.6155664,64.01559576,-99999.0,'11111222,11111222,99999999' 
TABS,ioos:station:wmo:42043:1,2004-05-02T00:30:00Z,28.9818,-94.9186,2.0,247.384859,51.93307713,-99999.0,'11111222,11111222,99999999' 
TABS,ioos:station:wmo:42043:1,2004-05-02T01:00:00Z,28.9818,-94.9186,2.0,253.4598801,38.53445861,-99999.0,'11111222,11111222,99999999' 
TABS,ioos:station:wmo:42043:1,2004-05-02T01:30:00Z,28.9818,-94.9186,2.0,248.4550894,31.47939008,-99999.0,'11111222,11111222,99999999' 
TABS,ioos:station:wmo:42043:1,2004-05-02T02:00:00Z,28.9818,-94.9186,2.0,235.8719655,37.03841249,-99999.0,'11111222,11111222,99999999' 
TABS,ioos:station:wmo:42043:1,2004-05-02T02:30:00Z,28.9818,-94.9186,2.0,237.0148236,47.99629673,-99999.0,'11111222,11111222,99999999' 
TABS,ioos:station:wmo:42043:1,2004-05-02T03:00:00Z,28.9818,-94.9186,2.0,238.2449611,48.45296689,-99999.0,'11111222,11111222,99999999' 
TABS,ioos:station:wmo:42043:1,2004-05-02T03:30:00Z,28.9818,-94.9186,2.0,235.5806959,43.82208804,-99999.0,'11111222,11111222,99999999' 
TABS,ioos:station:wmo:42043:1,2004-05-02T04:00:00Z,28.9818,-94.9186,2.0,238.2819942,47.7047461,-99999.0,'11111222,11111222,99999999' 
TABS,ioos:station:wmo:42043:1,2004-05-02T04:30:00Z,28.9818,-94.9186,2.0,245.7848714,44.27561406,-99999.0,'11111222,11111222,99999999' 
TABS,ioos:station:wmo:42043:1,2004-05-02T05:00:00Z,28.9818,-94.9186,2.0,247.5066661,35.07854758,-99999.0,'11111222,11111222,99999999' 
TABS,ioos:station:wmo:42043:1,2004-05-02T05:30:00Z,28.9818,-94.9186,2.0,234.6513735,44.66374928,-99999.0,'11111222,11111222,99999999' 
TABS,ioos:station:wmo:42043:1,2004-05-02T06:00:00Z,28.9818,-94.9186,2.0,236.3994266,47.7597456,-99999.0,'11111222,11111222,99999999' 
TABS,ioos:station:wmo:42043:1,2004-05-02T06:30:00Z,28.9818,-94.9186,2.0,234.5549426,55.88728836,-99999.0,'11111222,11111222,99999999' 
TABS,ioos:station:wmo:42043:1,2004-05-02T07:00:00Z,28.9818,-94.9186,2.0,233.3026373,53.03024137,-99999.0,'11111222,11111222,99999999' 
TABS,ioos:station:wmo:42043:1,2004-05-02T07:30:00Z,28.9818,-94.9186,2.0,231.2740042,57.06593029,-99999.0,'11111222,11111222,99999999' 
TABS,ioos:station:wmo:42043:1,2004-05-02T08:00:00Z,28.9818,-94.9186,2.0,230.1181014,54.05465752,-99999.0,'11111222,11111222,99999999' 
TABS,ioos:station:wmo:42043:1,2004-05-02T08:30:00Z,28.9818,-94.9186,2.0,236.5900887,58.35238641,-99999.0,'11111222,11111222,99999999' 
TABS,ioos:station:wmo:42043:1,2004-05-02T09:00:00Z,28.9818,-94.9186,2.0,234.3055774,55.35965679,-99999.0,'11111222,11111222,99999999' 
TABS,ioos:station:wmo:42043:1,2004-05-02T09:30:00Z,28.9818,-94.9186,2.0,236.556287,56.68533849,-99999.0,'11111222,11111222,99999999' 
TABS,ioos:station:wmo:42043:1,2004-05-02T10:00:00Z,28.9818,-94.9186,2.0,227.3364038,56.88454447,-99999.0,'11111222,11111222,99999999' 
TABS,ioos:station:wmo:42043:1,2004-05-02T10:30:00Z,28.9818,-94.9186,2.0,221.6979426,66.9114467,-99999.0,'11111222,11111222,99999999' 
TABS,ioos:station:wmo:42043:1,2004-05-02T11:00:00Z,28.9818,-94.9186,2.0,233.5741263,61.89186134,-99999.0,'11111222,11111222,99999999' 
TABS,ioos:station:wmo:42043:1,2004-05-02T11:30:00Z,28.9818,-94.9186,2.0,242.024178,55.23419683,-99999.0,'11111222,11111222,99999999' 
TABS,ioos:station:wmo:42043:1,2004-05-02T12:00:00Z,28.9818,-94.9186,2.0,251.0696111,49.04243265,-99999.0,'11111222,11111222,99999999' 
TABS,ioos:station:wmo:42043:1,2004-05-02T12:30:00Z,28.9818,-94.9186,2.0,261.0647244,43.39659549,-99999.0,'11111222,11111222,99999999' 
TABS,ioos:station:wmo:42043:1,2004-05-02T13:00:00Z,28.9818,-94.9186,2.0,244.6999146,56.90839042,-99999.0,'11111222,11111222,99999999' 
TABS,ioos:station:wmo:42043:1,2004-05-02T13:30:00Z,28.9818,-94.9186,2.0,245.1393144,48.85734847,-99999.0,'11111222,11111222,99999999' 
TABS,ioos:station:wmo:42043:1,2004-05-02T14:00:00Z,28.9818,-94.9186,2.0,235.7235066,70.22594535,-99999.0,'11111222,11111222,99999999' 
TABS,ioos:station:wmo:42043:1,2004-05-02T14:30:00Z,28.9818,-94.9186,2.0,235.6688532,78.37294431,-99999.0,'11111222,11111222,99999999' 
TABS,ioos:station:wmo:42043:1,2004-05-02T15:00:00Z,28.9818,-94.9186,2.0,244.3232786,65.4531107,-99999.0,'11111222,11111222,99999999' 
TABS,ioos:station:wmo:42043:1,2004-05-02T15:30:00Z,28.9818,-94.9186,2.0,243.1596486,59.64556396,-99999.0,'11111222,11111222,99999999' 
TABS,ioos:station:wmo:42043:1,2004-05-02T16:00:00Z,28.9818,-94.9186,2.0,244.7581448,46.07976671,-99999.0,'11111222,11111222,99999999' 
TABS,ioos:station:wmo:42043:1,2004-05-02T16:30:00Z,28.9818,-94.9186,2.0,234.862542,71.16854361,-99999.0,'11111222,11111222,99999999' 
TABS,ioos:station:wmo:42043:1,2004-05-02T17:00:00Z,28.9818,-94.9186,2.0,236.577295,74.20028167,-99999.0,'11111222,11111222,99999999' 
TABS,ioos:station:wmo:42043:1,2004-05-02T17:30:00Z,28.9818,-94.9186,2.0,239.654947,66.34981537,-99999.0,'11111222,11111222,99999999' 
TABS,ioos:station:wmo:42043:1,2004-05-02T18:00:00Z,28.9818,-94.9186,2.0,239.3307242,61.9906993,-99999.0,'11111222,11111222,99999999' 
TABS,ioos:station:wmo:42043:1,2004-05-02T18:30:00Z,28.9818,-94.9186,2.0,238.9729004,70.19269834,-99999.0,'11111222,11111222,99999999' 
TABS,ioos:station:wmo:42043:1,2004-05-02T19:00:00Z,28.9818,-94.9186,2.0,238.9136275,77.95485937,-99999.0,'11111222,11111222,99999999' 
TABS,ioos:station:wmo:42043:1,2004-05-02T19:30:00Z,28.9818,-94.9186,2.0,240.6966023,73.0239002,-99999.0,'11111222,11111222,99999999' 
TABS,ioos:station:wmo:42043:1,2004-05-02T20:00:00Z,28.9818,-94.9186,2.0,242.4352431,70.51394897,-99999.0,'11111222,11111222,99999999' 
TABS,ioos:station:wmo:42043:1,2004-05-02T20:30:00Z,28.9818,-94.9186,2.0,239.3430712,80.29164651,-99999.0,'11111222,11111222,99999999' 
TABS,ioos:station:wmo:42043:1,2004-05-02T21:00:00Z,28.9818,-94.9186,2.0,246.7361829,74.23545245,-99999.0,'11111222,11111222,99999999' 
TABS,ioos:station:wmo:42043:1,2004-05-02T21:30:00Z,28.9818,-94.9186,2.0,244.8960161,76.62814235,-99999.0,'11111222,11111222,99999999' 
TABS,ioos:station:wmo:42043:1,2004-05-02T22:00:00Z,28.9818,-94.9186,2.0,250.2261762,73.7802582,-99999.0,'11111222,11111222,99999999' 
TABS,ioos:station:wmo:42043:1,2004-05-02T22:30:00Z,28.9818,-94.9186,2.0,244.8821987,74.70404072,-99999.0,'11111222,11111222,99999999' 
TABS,ioos:station:wmo:42043:1,2004-05-02T23:00:00Z,28.9818,-94.9186,2.0,242.3582276,79.51519163,-99999.0,'11111222,11111222,99999999' 
TABS,ioos:station:wmo:42043:1,2004-05-02T23:30:00Z,28.9818,-94.9186,2.0,243.2489275,69.00542008,-99999.0,'11111222,11111222,99999999' 
TABS,ioos:station:wmo:42043:1,2004-05-03T00:00:00Z,28.9818,-94.9186,2.0,241.4136084,63.66020421,-99999.0,'11111222,11111222,99999999' 
TABS,ioos:station:wmo:42043:1,2004-05-03T00:30:00Z,28.9818,-94.9186,2.0,244.4801272,58.33083661,-99999.0,'11111222,11111222,99999999' 
TABS,ioos:station:wmo:42043:1,2004-05-03T01:00:00Z,28.9818,-94.9186,2.0,245.3005021,47.38504511,-99999.0,'11111222,11111222,99999999' 
TABS,ioos:station:wmo:42043:1,2004-05-03T01:30:00Z,28.9818,-94.9186,2.0,239.5942321,51.21362416,-99999.0,'11111222,11111222,99999999' 
TABS,ioos:station:wmo:42043:1,2004-05-03T02:00:00Z,28.9818,-94.9186,2.0,238.0387348,58.73344022,-99999.0,'11111222,11111222,99999999' 
TABS,ioos:station:wmo:42043:1,2004-05-03T02:30:00Z,28.9818,-94.9186,2.0,237.0871802,54.7705943,-99999.0,'11111222,11111222,99999999' 
TABS,ioos:station:wmo:42043:1,2004-05-03T03:00:00Z,28.9818,-94.9186,2.0,239.4204237,57.24065688,-99999.0,'11111222,11111222,99999999' 
TABS,ioos:station:wmo:42043:1,2004-05-03T03:30:00Z,28.9818,-94.9186,2.0,235.9281769,53.74609288,-99999.0,'11111222,11111222,99999999' 
TABS,ioos:station:wmo:42043:1,2004-05-03T04:00:00Z,28.9818,-94.9186,2.0,233.6038453,61.39610167,-99999.0,'11111222,11111222,99999999' 
TABS,ioos:station:wmo:42043:1,2004-05-03T04:30:00Z,28.9818,-94.9186,2.0,233.2013357,52.83804122,-99999.0,'11111222,11111222,99999999' 
TABS,ioos:station:wmo:42043:1,2004-05-03T05:00:00Z,28.9818,-94.9186,2.0,230.3127334,56.89074881,-99999.0,'11111222,11111222,99999999' 
TABS,ioos:station:wmo:42043:1,2004-05-03T05:30:00Z,28.9818,-94.9186,2.0,229.0069912,52.71641585,-99999.0,'11111222,11111222,99999999' 
TABS,ioos:station:wmo:42043:1,2004-05-03T06:00:00Z,28.9818,-94.9186,2.0,229.8200486,49.81509008,-99999.0,'11111222,11111222,99999999' 
TABS,ioos:station:wmo:42043:1,2004-05-03T06:30:00Z,28.9818,-94.9186,2.0,228.1755154,50.67131042,-99999.0,'11111222,11111222,99999999' 
TABS,ioos:station:wmo:42043:1,2004-05-03T07:00:00Z,28.9818,-94.9186,2.0,230.3903139,57.20337228,-99999.0,'11111222,11111222,99999999' 
TABS,ioos:station:wmo:42043:1,2004-05-03T07:30:00Z,28.9818,-94.9186,2.0,229.4239829,60.68087837,-99999.0,'11111222,11111222,99999999' 
TABS,ioos:station:wmo:42043:1,2004-05-03T08:00:00Z,28.9818,-94.9186,2.0,229.0409952,61.90556437,-99999.0,'11111222,11111222,99999999' 
TABS,ioos:station:wmo:42043:1,2004-05-03T08:30:00Z,28.9818,-94.9186,2.0,228.7038285,61.29278098,-99999.0,'11111222,11111222,99999999' 
TABS,ioos:station:wmo:42043:1,2004-05-03T09:00:00Z,28.9818,-94.9186,2.0,229.7371953,56.67732704,-99999.0,'11111222,11111222,99999999' 
TABS,ioos:station:wmo:42043:1,2004-05-03T09:30:00Z,28.9818,-94.9186,2.0,228.4734857,48.31345361,-99999.0,'11111222,11111222,99999999' 
TABS,ioos:station:wmo:42043:1,2004-05-03T10:00:00Z,28.9818,-94.9186,2.0,227.4967877,46.57892764,-99999.0,'11111222,11111222,99999999' 
TABS,ioos:station:wmo:42043:1,2004-05-03T10:30:00Z,28.9818,-94.9186,2.0,225.5814304,48.75045436,-99999.0,'11111222,11111222,99999999' 
TABS,ioos:station:wmo:42043:1,2004-05-03T11:00:00Z,28.9818,-94.9186,2.0,217.1279787,44.35045096,-99999.0,'11111222,11111222,99999999' 
TABS,ioos:station:wmo:42043:1,2004-05-03T11:30:00Z,28.9818,-94.9186,2.0,209.8263281,41.738971,-99999.0,'11111222,11111222,99999999' 
TABS,ioos:station:wmo:42043:1,2004-05-03T12:00:00Z,28.9818,-94.9186,2.0,215.2336525,47.14721731,-99999.0,'11111222,11111222,99999999' 
TABS,ioos:station:wmo:42043:1,2004-05-03T12:30:00Z,28.9818,-94.9186,2.0,217.7552673,46.70958039,-99999.0,'11111222,11111222,99999999' 
TABS,ioos:station:wmo:42043:1,2004-05-03T13:00:00Z,28.9818,-94.9186,2.0,216.5250095,43.23078186,-99999.0,'11111222,11111222,99999999' 
TABS,ioos:station:wmo:42043:1,2004-05-03T13:30:00Z,28.9818,-94.9186,2.0,217.9315315,41.54713588,-99999.0,'11111222,11111222,99999999' 
TABS,ioos:station:wmo:42043:1,2004-05-03T14:00:00Z,28.9818,-94.9186,2.0,211.0681109,36.62358393,-99999.0,'11111222,11111222,99999999' 
TABS,ioos:station:wmo:42043:1,2004-05-03T14:30:00Z,28.9818,-94.9186,2.0,208.8753599,37.93666828,-99999.0,'11111222,11111222,99999999' 
TABS,ioos:station:wmo:42043:1,2004-05-03T15:00:00Z,28.9818,-94.9186,2.0,209.2974121,32.73748463,-99999.0,'11111222,11111222,99999999' 
TABS,ioos:station:wmo:42043:1,2004-05-03T15:30:00Z,28.9818,-94.9186,2.0,203.4058677,43.49948046,-99999.0,'11111222,11111222,99999999' 
TABS,ioos:station:wmo:42043:1,2004-05-03T16:00:00Z,28.9818,-94.9186,2.0,205.6223277,43.77471645,-99999.0,'11111222,11111222,99999999' 
TABS,ioos:station:wmo:42043:1,2004-05-03T16:30:00Z,28.9818,-94.9186,2.0,210.1368097,48.37964138,-99999.0,'11111222,11111222,99999999' 
TABS,ioos:station:wmo:42043:1,2004-05-03T17:00:00Z,28.9818,-94.9186,2.0,212.6929513,45.91393688,-99999.0,'11111222,11111222,99999999' 
TABS,ioos:station:wmo:42043:1,2004-05-03T17:30:00Z,28.9818,-94.9186,2.0,210.3941738,47.8110207,-99999.0,'11111222,11111222,99999999' 
TABS,ioos:station:wmo:42043:1,2004-05-03T18:00:00Z,28.9818,-94.9186,2.0,210.9841207,47.59086047,-99999.0,'11111222,11111222,99999999' 
TABS,ioos:station:wmo:42043:1,2004-05-03T18:30:00Z,28.9818,-94.9186,2.0,206.4502839,42.52115356,-99999.0,'11111222,11111222,99999999' 
TABS,ioos:station:wmo:42043:1,2004-05-03T19:00:00Z,28.9818,-94.9186,2.0,210.7743798,44.16970115,-99999.0,'11111222,11111222,99999999' 
TABS,ioos:station:wmo:42043:1,2004-05-03T19:30:00Z,28.9818,-94.9186,2.0,209.256783,43.7052228,-99999.0,'11111222,11111222,99999999' 
TABS,ioos:station:wmo:42043:1,2004-05-03T20:00:00Z,28.9818,-94.9186,2.0,209.5632387,42.31962311,-99999.0,'11111222,11111222,99999999' 
TABS,ioos:station:wmo:42043:1,2004-05-03T20:30:00Z,28.9818,-94.9186,2.0,203.6398075,42.94373063,-99999.0,'11111222,11111222,99999999' 
TABS,ioos:station:wmo:42043:1,2004-05-03T21:00:00Z,28.9818,-94.9186,2.0,209.0484387,47.26568417,-99999.0,'11111222,11111222,99999999' 
TABS,ioos:station:wmo:42043:1,2004-05-03T21:30:00Z,28.9818,-94.9186,2.0,207.0089645,46.72628061,-99999.0,'11111222,11111222,99999999' 
TABS,ioos:station:wmo:42043:1,2004-05-03T22:00:00Z,28.9818,-94.9186,2.0,204.9212811,47.5583694,-99999.0,'11111222,11111222,99999999' 
TABS,ioos:station:wmo:42043:1,2004-05-03T22:30:00Z,28.9818,-94.9186,2.0,207.523401,50.78821222,-99999.0,'11111222,11111222,99999999' 
TABS,ioos:station:wmo:42043:1,2004-05-03T23:00:00Z,28.9818,-94.9186,2.0,211.0811316,50.94376213,-99999.0,'11111222,11111222,99999999' 
TABS,ioos:station:wmo:42043:1,2004-05-03T23:30:00Z,28.9818,-94.9186,2.0,213.8331886,50.9715607,-99999.0,'11111222,11111222,99999999' 
TABS,ioos:station:wmo:42043:1,2004-05-04T00:00:00Z,28.9818,-94.9186,2.0,213.2519745,52.26815187,-99999.0,'11111222,11111222,99999999' 
TABS,ioos:station:wmo:42043:1,2004-05-04T00:30:00Z,28.9818,-94.9186,2.0,217.4617404,55.73497645,-99999.0,'11111222,11111222,99999999' 
TABS,ioos:station:wmo:42043:1,2004-05-04T01:00:00Z,28.9818,-94.9186,2.0,220.2645166,53.19335015,-99999.0,'11111222,11111222,99999999' 
TABS,ioos:station:wmo:42043:1,2004-05-04T01:30:00Z,28.9818,-94.9186,2.0,221.8620066,50.12415984,-99999.0,'11111222,11111222,99999999' 
TABS,ioos:station:wmo:42043:1,2004-05-04T02:00:00Z,28.9818,-94.9186,2.0,217.590415,47.37574907,-99999.0,'11111222,11111222,99999999' 
TABS,ioos:station:wmo:42043:1,2004-05-04T02:30:00Z,28.9818,-94.9186,2.0,215.8999079,45.38049912,-99999.0,'11111222,11111222,99999999' 
TABS,ioos:station:wmo:42043:1,2004-05-04T03:00:00Z,28.9818,-94.9186,2.0,212.2312202,42.16810406,-99999.0,'11111222,11111222,99999999' 
TABS,ioos:station:wmo:42043:1,2004-05-04T03:30:00Z,28.9818,-94.9186,2.0,208.8750733,40.04922596,-99999.0,'11111222,11111222,99999999' 
TABS,ioos:station:wmo:42043:1,2004-05-04T04:00:00Z,28.9818,-94.9186,2.0,201.2125663,35.43068303,-99999.0,'11111222,11111222,99999999' 
TABS,ioos:station:wmo:42043:1,2004-05-04T04:30:00Z,28.9818,-94.9186,2.0,195.5079926,28.98529627,-99999.0,'11111222,11111222,99999999' 
TABS,ioos:station:wmo:42043:1,2004-05-04T05:00:00Z,28.9818,-94.9186,2.0,183.4482176,26.26756174,-99999.0,'11111222,11111222,99999999' 
TABS,ioos:station:wmo:42043:1,2004-05-04T05:30:00Z,28.9818,-94.9186,2.0,164.5688968,21.72307529,-99999.0,'11111222,11111222,99999999' 
TABS,ioos:station:wmo:42043:1,2004-05-04T06:00:00Z,28.9818,-94.9186,2.0,163.5110744,19.55415557,-99999.0,'11111222,11111222,99999999' 
TABS,ioos:station:wmo:42043:1,2004-05-04T06:30:00Z,28.9818,-94.9186,2.0,153.2959411,23.98860771,-99999.0,'11111222,11111222,99999999' 
TABS,ioos:station:wmo:42043:1,2004-05-04T07:00:00Z,28.9818,-94.9186,2.0,144.4565875,23.75636757,-99999.0,'11111222,11111222,99999999' 
TABS,ioos:station:wmo:42043:1,2004-05-04T07:30:00Z,28.9818,-94.9186,2.0,138.0190838,26.58168542,-99999.0,'11111222,11111222,99999999' 
TABS,ioos:station:wmo:42043:1,2004-05-04T08:00:00Z,28.9818,-94.9186,2.0,133.8366249,30.99887901,-99999.0,'11111222,11111222,99999999' 
TABS,ioos:station:wmo:42043:1,2004-05-04T08:30:00Z,28.9818,-94.9186,2.0,130.6664885,33.31511669,-99999.0,'11111222,11111222,99999999' 
TABS,ioos:station:wmo:42043:1,2004-05-04T09:00:00Z,28.9818,-94.9186,2.0,131.122318,36.49246635,-99999.0,'11111222,11111222,99999999' 
TABS,ioos:station:wmo:42043:1,2004-05-04T09:30:00Z,28.9818,-94.9186,2.0,133.4389451,37.63911928,-99999.0,'11111222,11111222,99999999' 
TABS,ioos:station:wmo:42043:1,2004-05-04T10:00:00Z,28.9818,-94.9186,2.0,134.4019636,41.33264206,-99999.0,'11111222,11111222,99999999' 
TABS,ioos:station:wmo:42043:1,2004-05-04T10:30:00Z,28.9818,-94.9186,2.0,138.573282,42.99790809,-99999.0,'11111222,11111222,99999999' 
TABS,ioos:station:wmo:42043:1,2004-05-04T11:00:00Z,28.9818,-94.9186,2.0,139.1897574,43.74540204,-99999.0,'11111222,11111222,99999999' 
TABS,ioos:station:wmo:42043:1,2004-05-04T11:30:00Z,28.9818,-94.9186,2.0,140.7185516,44.91977849,-99999.0,'11111222,11111222,99999999' 
TABS,ioos:station:wmo:42043:1,2004-05-04T12:00:00Z,28.9818,-94.9186,2.0,144.1387225,46.1231482,-99999.0,'11111222,11111222,99999999' 
TABS,ioos:station:wmo:42043:1,2004-05-04T12:30:00Z,28.9818,-94.9186,2.0,141.5077113,48.03925478,-99999.0,'11111222,11111222,99999999' 
TABS,ioos:station:wmo:42043:1,2004-05-04T13:00:00Z,28.9818,-94.9186,2.0,141.3557926,51.22655757,-99999.0,'11111222,11111222,99999999' 
TABS,ioos:station:wmo:42043:1,2004-05-04T13:30:00Z,28.9818,-94.9186,2.0,142.8554567,48.83856058,-99999.0,'11111222,11111222,99999999' 
TABS,ioos:station:wmo:42043:1,2004-05-04T14:00:00Z,28.9818,-94.9186,2.0,141.889568,45.27060857,-99999.0,'11111222,11111222,99999999' 
TABS,ioos:station:wmo:42043:1,2004-05-04T14:30:00Z,28.9818,-94.9186,2.0,143.232637,47.99807704,-99999.0,'11111222,11111222,99999999' 
TABS,ioos:station:wmo:42043:1,2004-05-04T15:00:00Z,28.9818,-94.9186,2.0,147.8244858,43.22902382,-99999.0,'11111222,11111222,99999999' 
TABS,ioos:station:wmo:42043:1,2004-05-04T15:30:00Z,28.9818,-94.9186,2.0,149.0608144,43.74414818,-99999.0,'11111222,11111222,99999999' 
TABS,ioos:station:wmo:42043:1,2004-05-04T16:00:00Z,28.9818,-94.9186,2.0,157.0688282,37.3951668,-99999.0,'11111222,11111222,99999999' 